Weather History for Mount Pleasant, MI

Change the Weather History Date:

Sunday, November 25, 2012

  Actual Average (KAMN) Record (KAMN)
Temperature  
Mean Temperature 30 °F -  
Max Temperature 34 °F 39 °F 57 °F (2001)
Min Temperature 26 °F 25 °F 0 °F (1950)
Degree Days  
Heating Degree Days 35    
Moisture  
Dew Point 25 °F    
Average Humidity 81    
Maximum Humidity 92    
Minimum Humidity 66    
Precipitation  
Precipitation 0.00 in - - ()
Sea Level Pressure  
Sea Level Pressure 29.86 in    
Wind  
Wind Speed 5 mph (SW)    
Max Wind Speed 10 mph    
Max Gust Speed 17 mph    
Visibility 8 miles    
Events Snow    
Averages and records for this station are not official NWS values.
T = Trace of Precipitation, MM = Missing Value Source: NWS Daily Summary

Daily Weather History Graph

Daily Weather History Graph

Search for Another Location

Airport:

Trip Planner

Search our weather history database for the weather conditions in past years. The results will help you decide how hot, cold, wet, or windy it might be!

Date:

Astronomy

Nov. 25, 2012 Rise Set
Actual Time 7:46 AM EST 5:05 PM EST
Civil Twilight 7:14 AM EST 5:37 PM EST
Nautical Twilight 6:38 AM EST 6:13 PM EST
Astronomical Twilight 6:04 AM EST 6:47 PM EST
Moon 3:25 PM EST (11/25) 4:55 AM EST (11/25)
Length of Visible Light 10h 23m
Length of Day
9h 19m
Waxing Gibbous, 93% of the Moon is Illuminated
Nov 25
Waxing Gibbous
Nov 28
Full
Dec 6
Last Quarter
Dec 13
New
Dec 20
First Quarter

Hourly Weather History & Observations

Time (EST) Temp. Windchill Dew Point Humidity Pressure Visibility Wind Dir Wind Speed Gust Speed Precip Events Conditions
12:15 AM 28.8 °F - 18.5 °F 66% 29.97 in 10.0 mi Calm Calm - N/A   Overcast
12:35 AM 28.8 °F 25.0 °F 18.9 °F 67% 29.97 in 10.0 mi SSW 3.5 mph - N/A   Overcast
12:55 AM 28.9 °F 23.9 °F 19.2 °F 67% 29.96 in 10.0 mi South 4.6 mph - N/A   Overcast
1:15 AM 28.9 °F 23.9 °F 19.4 °F 68% 29.94 in 10.0 mi SSE 4.6 mph - N/A   Overcast
1:35 AM 28.9 °F 25.2 °F 19.8 °F 69% 29.94 in 10.0 mi South 3.5 mph - N/A   Overcast
1:55 AM 29.1 °F 24.1 °F 20.3 °F 70% 29.94 in 10.0 mi South 4.6 mph - N/A   Overcast
2:15 AM 28.4 °F 23.3 °F 22.3 °F 78% 29.93 in 4.0 mi South 4.6 mph - N/A Snow Light Snow
2:35 AM 27.9 °F 24.0 °F 23.7 °F 84% 29.93 in 4.0 mi South 3.5 mph - N/A Snow Light Snow
2:55 AM 27.5 °F 23.6 °F 24.6 °F 89% 29.93 in 1.2 mi SSE 3.5 mph - N/A Snow Snow
3:15 AM 27.5 °F 23.6 °F 25.2 °F 91% 29.91 in 1.2 mi South 3.5 mph - N/A Snow Snow
3:35 AM 27.5 °F 18.6 °F 25.2 °F 91% 29.89 in 2.0 mi South 9.2 mph - N/A Snow Light Snow
3:55 AM 27.3 °F 22.0 °F 24.8 °F 90% 29.88 in 2.5 mi South 4.6 mph - N/A Snow Light Snow
4:15 AM 27.1 °F 20.7 °F 24.4 °F 90% 29.87 in 4.0 mi South 5.8 mph - N/A Snow Light Snow
4:35 AM 27.1 °F 21.8 °F 24.6 °F 90% 29.86 in 1.5 mi South 4.6 mph - N/A Snow Light Snow
4:54 AM 27.1 °F 19.7 °F 24.4 °F 90% 29.86 in 2.5 mi South 6.9 mph - N/A Snow Light Snow
5:15 AM 27.0 °F 20.5 °F 24.4 °F 90% 29.85 in 2.5 mi South 5.8 mph - N/A Snow Light Snow
5:35 AM 26.6 °F 21.2 °F 24.4 °F 92% 29.84 in 3.0 mi South 4.6 mph - N/A Snow Light Snow
5:54 AM 26.8 °F 22.8 °F 24.6 °F 92% 29.83 in 1.8 mi South 3.5 mph - N/A Snow Light Snow
6:15 AM 27.0 °F 19.5 °F 24.4 °F 90% 29.82 in 2.5 mi South 6.9 mph - N/A Snow Light Snow
6:35 AM 27.0 °F 18.0 °F 24.4 °F 90% 29.82 in 2.5 mi SSW 9.2 mph - N/A Snow Light Snow
6:55 AM 27.1 °F 19.7 °F 24.3 °F 89% 29.81 in 5.0 mi SSW 6.9 mph - N/A Snow Light Snow
7:15 AM 27.1 °F 20.7 °F 24.3 °F 89% 29.81 in 10.0 mi SSW 5.8 mph - N/A   Overcast
7:35 AM 27.1 °F 18.2 °F 23.9 °F 88% 29.81 in 10.0 mi SSW 9.2 mph - N/A   Overcast
7:55 AM 27.3 °F 22.0 °F 23.9 °F 87% 29.81 in 10.0 mi SSW 4.6 mph - N/A   Overcast
8:15 AM 27.5 °F 21.1 °F 24.1 °F 87% 29.81 in 5.0 mi South 5.8 mph - N/A Snow Light Snow
8:35 AM 27.5 °F 19.3 °F 24.6 °F 89% 29.82 in 2.5 mi SSW 8.1 mph - N/A   Overcast
8:55 AM 27.3 °F 20.9 °F 24.8 °F 90% 29.82 in 4.0 mi SSW 5.8 mph - N/A   Overcast
9:15 AM 27.3 °F 19.9 °F 24.8 °F 90% 29.81 in 5.0 mi SSW 6.9 mph - N/A   Overcast
9:35 AM 27.5 °F 21.1 °F 24.8 °F 90% 29.81 in 7.0 mi SSW 5.8 mph - N/A   Overcast
9:55 AM 27.7 °F 22.4 °F 24.8 °F 89% 29.81 in 7.0 mi SSW 4.6 mph - N/A   Overcast
10:15 AM 28.0 °F 20.8 °F 24.8 °F 88% 29.81 in 10.0 mi South 6.9 mph - N/A   Overcast
10:35 AM 28.4 °F 19.7 °F 25.2 °F 88% 29.81 in 10.0 mi SSW 9.2 mph - N/A   Overcast
10:55 AM 28.4 °F 23.3 °F 25.2 °F 88% 29.81 in 10.0 mi SSW 4.6 mph - N/A   Overcast
11:15 AM 29.1 °F 23.0 °F 25.3 °F 86% 29.81 in 10.0 mi SSW 5.8 mph - N/A   Overcast
11:35 AM 29.3 °F 23.2 °F 25.2 °F 85% 29.81 in 10.0 mi SW 5.8 mph - N/A   Overcast
11:55 AM 29.8 °F 23.0 °F 25.3 °F 83% 29.80 in 10.0 mi SW 6.9 mph - N/A   Overcast
12:15 PM 30.2 °F 26.7 °F 25.7 °F 83% 29.80 in 10.0 mi SW 3.5 mph - N/A   Overcast
12:35 PM 30.9 °F 26.2 °F 26.1 °F 82% 29.80 in 10.0 mi SW 4.6 mph - N/A   Overcast
12:55 PM 31.5 °F 24.9 °F 26.2 °F 81% 29.79 in 10.0 mi SW 6.9 mph - N/A   Overcast
1:15 PM 32.0 °F 26.4 °F 26.6 °F 80% 29.79 in 10.0 mi WSW 5.8 mph - N/A   Overcast
1:34 PM 32.0 °F 25.6 °F 26.8 °F 81% 29.79 in 10.0 mi WSW 6.9 mph - N/A   Overcast
1:55 PM 32.5 °F 26.2 °F 27.1 °F 80% 29.78 in 10.0 mi WSW 6.9 mph - N/A   Overcast
2:15 PM 32.9 °F 26.7 °F 27.5 °F 81% 29.79 in 10.0 mi WSW 6.9 mph - N/A   Overcast
2:35 PM 33.4 °F 28.1 °F 27.5 °F 79% 29.79 in 10.0 mi WSW 5.8 mph - N/A   Overcast
2:55 PM 33.4 °F 26.6 °F 27.3 °F 78% 29.79 in 10.0 mi West 8.1 mph - N/A   Overcast
3:15 PM 33.6 °F 27.5 °F 27.7 °F 79% 29.79 in 10.0 mi WSW 6.9 mph - N/A   Overcast
3:35 PM 33.8 °F 26.4 °F 27.5 °F 78% 29.80 in 10.0 mi WSW 9.2 mph - N/A   Overcast
3:55 PM 33.8 °F 27.0 °F 27.9 °F 79% 29.81 in 10.0 mi WSW 8.1 mph - N/A   Overcast
4:15 PM 33.8 °F 27.7 °F 27.9 °F 79% 29.82 in 10.0 mi West 6.9 mph - N/A   Overcast
4:35 PM 33.8 °F 27.7 °F 27.7 °F 78% 29.82 in 10.0 mi West 6.9 mph - N/A   Overcast
4:55 PM 34.0 °F 26.6 °F 26.2 °F 73% 29.83 in 10.0 mi West 9.2 mph 17.3 mph N/A   Overcast
5:15 PM 33.8 °F 27.0 °F 25.9 °F 73% 29.84 in 10.0 mi West 8.1 mph - N/A   Overcast
5:35 PM 33.8 °F 28.6 °F 25.7 °F 72% 29.84 in 10.0 mi West 5.8 mph - N/A   Overcast
5:55 PM 33.8 °F 25.8 °F 25.7 °F 72% 29.85 in 10.0 mi West 10.4 mph - N/A   Overcast
6:15 PM 33.8 °F 26.4 °F 25.7 °F 72% 29.86 in 10.0 mi West 9.2 mph - N/A   Overcast
6:35 PM 33.6 °F 26.2 °F 25.9 °F 73% 29.87 in 10.0 mi West 9.2 mph - N/A   Overcast
6:55 PM 33.4 °F 25.9 °F 25.7 °F 73% 29.88 in 10.0 mi West 9.2 mph - N/A   Overcast
7:15 PM 33.3 °F 26.4 °F 25.7 °F 74% 29.89 in 10.0 mi West 8.1 mph - N/A   Overcast
7:35 PM 32.5 °F 26.2 °F 25.7 °F 76% 29.89 in 10.0 mi West 6.9 mph - N/A   Mostly Cloudy
7:55 PM 32.4 °F 25.3 °F 25.7 °F 76% 29.90 in 10.0 mi West 8.1 mph - N/A   Overcast
8:14 PM 32.0 °F 26.4 °F 25.5 °F 77% 29.90 in 10.0 mi West 5.8 mph - N/A   Scattered Clouds
8:35 PM 31.6 °F 26.0 °F 25.2 °F 77% 29.91 in 10.0 mi West 5.8 mph - N/A   Scattered Clouds
8:55 PM 30.2 °F 25.4 °F 24.3 °F 79% 29.90 in 10.0 mi WSW 4.6 mph - N/A   Scattered Clouds
9:14 PM 29.3 °F 23.2 °F 23.9 °F 80% 29.91 in 10.0 mi WSW 5.8 mph - N/A   Clear
9:35 PM 29.3 °F 23.2 °F 23.7 °F 80% 29.92 in 10.0 mi WSW 5.8 mph - N/A   Scattered Clouds
9:55 PM 30.7 °F 24.1 °F 24.4 °F 77% 29.93 in 10.0 mi WSW 6.9 mph - N/A   Mostly Cloudy
10:14 PM 30.9 °F 26.2 °F 24.3 °F 76% 29.93 in 10.0 mi WSW 4.6 mph - N/A   Overcast
10:35 PM 31.1 °F 26.4 °F 24.4 °F 76% 29.93 in 10.0 mi WSW 4.6 mph - N/A   Overcast
10:55 PM 31.5 °F 26.8 °F 24.4 °F 75% 29.94 in 10.0 mi WSW 4.6 mph - N/A   Overcast
11:15 PM 31.8 °F 26.2 °F 24.4 °F 74% 29.94 in 10.0 mi WSW 5.8 mph - N/A   Overcast
11:35 PM 32.0 °F - 24.4 °F 74% 29.94 in 10.0 mi Calm Calm - N/A   Overcast
11:55 PM 32.0 °F 27.5 °F 24.4 °F 74% 29.96 in 10.0 mi West 4.6 mph - N/A   Overcast